{"data":{"norad_id":53266,"intl_designator":"2022-086AA","name":"STARLINK-4058","alt_names":[],"object_type":"PAYLOAD","status":"ACTIVE","operator":null,"country":"US","launch_date":"2022-07-24","launch_site_code":"AFETR","launch_vehicle":null,"mission":null,"orbit_class":"UNKNOWN","rcs_meters":null,"size_class":null,"mass_kg":null,"dimensions":null,"purposes":["comms"],"wikipedia_slug":null,"has_3d_model":false,"image_url":null,"decayed_at":null,"tle_current":{"epoch":"2026-09-19T23:42:24.610176Z","epoch_age_seconds":119666,"freshness":"FRESH","line1":"1 53266U 22086AA  26262.98778484 -.00000485  00000+0 -34365-5 0  9997","line2":"2 53266  53.1596  28.3679 0001026 101.2763 258.8355 15.33542002230586","mean_motion":15.33542002,"eccentricity":0.0001026,"inclination_deg":53.1596,"raan_deg":28.3679,"arg_perigee_deg":101.2763,"mean_anomaly_deg":258.8355,"bstar":-3.4365e-6,"rev_number":23058,"period_min":93.900264754535,"perigee_km":464.55244800984,"apogee_km":465.95671196205,"semimajor_km":6843.3915799859,"source":"CELESTRAK","updated_at":"2026-09-20T09:00:40.217254Z"}}}